GW3809 Weather Reports


Display with metric or nautical units.
time (UTC)temp
F
wind
direction
speed
MPH
gust
MPH
rain 1hr
in
rain 24hr
in
rain mn
in
humidity
%
barometer
mb
20260831132034 82 158 2.0 5.0 0.00 0.00 0.00 83 1015.9
20260831131529 82 176 5.0 6.0 0.00 0.00 0.00 83 1015.9
20260831131025 82 153 6.0 7.0 0.00 0.00 0.00 84 1015.7
20260831130525 82 143 4.0 6.0 0.00 0.00 0.00 84 1015.7
20260831130021 82 170 2.0 6.0 0.00 0.00 0.00 84 1015.6
20260831125515 82 141 4.0 6.0 0.00 0.00 0.00 84 1015.4
20260831125010 82 160 3.0 6.0 0.00 0.00 0.00 84 1015.7
20260831124507 81 158 4.0 7.0 0.00 0.00 0.00 84 1015.6
20260831124002 81 145 2.0 6.0 0.00 0.00 0.00 84 1015.6
20260831123501 81 167 2.0 3.0 0.00 0.00 0.00 84 1015.6
20260831122955 81 169 3.0 4.0 0.00 0.00 0.00 84 1015.4
20260831122451 81 164 2.0 6.0 0.00 0.00 0.00 84 1015.2
20260831121946 81 178 2.0 4.0 0.00 0.00 0.00 84 1015.1
20260831121441 82 156 2.0 4.0 0.00 0.00 0.00 84 1015.0
20260831120937 82 162 3.0 6.0 0.00 0.00 0.00 84 1015.1
20260831120431 82 157 3.0 6.0 0.00 0.00 0.00 83 1014.9
20260831115931 82 159 6.0 6.0 0.00 0.00 0.00 83 1015.1
20260831115427 82 143 3.0 5.0 0.00 0.00 0.00 83 1015.1
20260831114922 82 132 5.0 5.0 0.00 0.00 0.00 83 1015.0
20260831114421 82 154 3.0 4.0 0.00 0.00 0.00 83 1015.0
20260831113917 82 156 4.0 5.0 0.00 0.00 0.00 83 1015.0
20260831113416 82 183 2.0 6.0 0.00 0.00 0.00 83 1014.9
20260831112911 82 150 4.0 6.0 0.00 0.00 0.00 83 1014.9
20260831112411 82 181 3.0 6.0 0.00 0.00 0.00 83 1015.1
20260831111906 82 201 2.0 5.0 0.00 0.00 0.00 83 1015.1
20260831111402 82 155 5.0 6.0 0.00 0.00 0.00 82 1014.9
20260831110858 82 169 2.0 6.0 0.00 0.00 0.00 82 1014.9
20260831110353 82 195 2.0 7.0 0.00 0.00 0.00 82 1015.0
20260831105851 82 203 4.0 8.0 0.00 0.00 0.00 82 1015.0
20260831105347 82 162 6.0 7.0 0.00 0.00 0.00 82 1015.0
20260831104842 82 137 2.0 4.0 0.00 0.00 0.00 82 1015.0
20260831104338 82 153 3.0 6.0 0.00 0.00 0.00 82 1015.0
20260831103838 82 207 3.0 6.0 0.00 0.00 0.00 82 1015.0
20260831103334 82 234 2.0 5.0 0.00 0.00 0.00 82 1015.0
20260831102829 82 205 2.0 4.0 0.00 0.00 0.00 82 1014.9
20260831102324 83 160 3.0 8.0 0.00 0.00 0.00 82 1014.7
20260831101819 83 155 4.0 4.0 0.00 0.00 0.00 82 1014.9
20260831101309 83 207 5.0 6.0 0.00 0.00 0.00 82 1014.8
20260831100805 83 177 4.0 6.0 0.00 0.00 0.00 82 1014.8
20260831100301 83 240 2.0 5.0 0.00 0.00 0.00 82 1014.9
20260831095800 83 169 5.0 7.0 0.00 0.00 0.00 82 1015.0
20260831095255 83 158 4.0 7.0 0.00 0.00 0.00 82 1015.0
20260831094755 83 159 5.0 8.0 0.00 0.00 0.00 82 1015.1
20260831094250 83 199 5.0 6.0 0.00 0.00 0.00 82 1015.0
20260831093746 83 178 3.0 6.0 0.00 0.00 0.00 81 1014.9
20260831093240 83 148 11.0 14.0 0.00 0.00 0.00 81 1014.9
20260831092737 83 182 5.0 9.0 0.00 0.00 0.00 81 1014.7
20260831092233 83 176 4.0 9.0 0.00 0.00 0.00 81 1014.8
20260831091732 83 187 3.0 6.0 0.00 0.00 0.00 81 1014.9
20260831091228 83 164 3.0 9.0 0.00 0.00 0.00 81 1014.8
20260831090723 83 158 6.0 10.0 0.00 0.00 0.00 81 1014.9
20260831090219 83 157 4.0 5.0 0.00 0.00 0.00 81 1014.9
20260831085714 84 157 5.0 8.0 0.00 0.00 0.00 81 1015.2
20260831085204 83 170 6.0 9.0 0.00 0.00 0.00 81 1015.0
20260831084659 84 164 3.0 6.0 0.00 0.00 0.00 80 1015.2
20260831084155 84 147 5.0 7.0 0.00 0.00 0.00 80 1015.0
20260831083651 84 172 3.0 10.0 0.00 0.00 0.00 80 1015.2
20260831083146 84 189 4.0 10.0 0.00 0.00 0.00 80 1015.0
20260831082644 84 195 6.0 11.0 0.00 0.00 0.00 80 1015.2
20260831082140 84 173 6.0 9.0 0.00 0.00 0.00 80 1015.0
20260831081636 84 171 6.0 9.0 0.00 0.00 0.00 79 1015.0
20260831081132 84 177 3.0 8.0 0.00 0.00 0.00 79 1015.0
20260831080627 84 161 6.0 8.0 0.00 0.00 0.00 79 1015.2
20260831080122 84 173 3.0 10.0 0.00 0.00 0.00 79 1015.4
20260831075618 84 187 7.0 9.0 0.00 0.00 0.00 79 1015.1
20260831075113 84 179 4.0 9.0 0.00 0.00 0.00 79 1015.3
20260831074612 84 177 3.0 9.0 0.00 0.00 0.00 80 1015.4
20260831074107 84 195 5.0 9.0 0.00 0.00 0.00 80 1015.5
20260831073602 84 166 8.0 8.0 0.00 0.00 0.00 80 1015.4
20260831073101 84 181 3.0 7.0 0.00 0.00 0.00 80 1015.6
20260831072556 84 177 4.0 8.0 0.00 0.00 0.00 79 1015.7
20260831072053 84 181 5.0 8.0 0.00 0.00 0.00 79 1015.7
20260831071551 84 147 8.0 8.0 0.00 0.00 0.00 79 1015.7
20260831071047 84 159 5.0 7.0 0.00 0.00 0.00 79 1015.8
20260831070546 84 183 3.0 5.0 0.00 0.00 0.00 79 1015.7
20260831070041 84 163 4.0 7.0 0.00 0.00 0.00 79 1016.0
20260831065538 84 181 4.0 8.0 0.00 0.00 0.00 78 1015.9
20260831065033 84 188 4.0 5.0 0.00 0.00 0.00 78 1016.0
20260831064528 84 178 6.0 9.0 0.00 0.00 0.00 78 1015.9
20260831064024 84 166 5.0 9.0 0.00 0.00 0.00 78 1016.1
20260831063519 84 139 6.0 9.0 0.00 0.00 0.00 78 1015.8
20260831063014 84 160 4.0 13.0 0.00 0.00 0.00 77 1015.7
20260831062509 84 146 9.0 9.0 0.00 0.00 0.00 77 1016.0
20260831062008 84 165 6.0 8.0 0.00 0.00 0.00 77 1016.1
20260831061506 84 142 13.0 15.0 0.00 0.00 0.00 77 1016.1
20260831061003 84 171 6.0 10.0 0.00 0.00 0.00 77 1016.1
20260831060502 84 183 4.0 6.0 0.00 0.00 0.00 77 1016.1
20260831055956 84 167 8.0 12.0 0.00 0.00 0.00 78 1016.0
20260831055452 84 163 7.0 9.0 0.00 0.00 0.00 78 1016.0
20260831054948 84 170 4.0 15.0 0.00 0.00 0.00 78 1016.1
20260831054447 85 143 9.0 11.0 0.00 0.00 0.00 78 1016.3
20260831053946 85 149 6.0 13.0 0.00 0.00 0.00 78 1016.1
20260831053444 84 155 4.0 11.0 0.00 0.00 0.00 78 1016.0
20260831052939 84 140 9.0 12.0 0.00 0.00 0.00 78 1016.0
20260831052434 85 142 9.0 12.0 0.00 0.00 0.00 78 1016.0
20260831051932 85 139 10.0 14.0 0.00 0.00 0.00 78 1016.0
20260831051431 84 166 7.0 11.0 0.00 0.00 0.00 78 1016.0
20260831050926 84 158 6.0 10.0 0.00 0.00 0.00 78 1016.0
20260831050425 85 158 5.0 12.0 0.00 0.00 0.00 78 1016.1
20260831045924 85 139 8.0 12.0 0.00 0.00 0.00 77 1016.1
20260831045423 85 151 5.0 9.0 0.00 0.00 0.00 77 1015.9
20260831044918 85 152 6.0 10.0 0.00 0.00 0.00 77 1016.1
20260831044414 85 165 5.0 12.0 0.00 0.00 0.00 77 1016.2
20260831043910 85 159 6.0 11.0 0.00 0.00 0.00 77 1016.1
20260831043409 85 171 6.0 17.0 0.00 0.00 0.00 77 1016.2
20260831042905 85 154 8.0 13.0 0.00 0.00 0.00 77 1016.3
20260831042404 85 154 8.0 12.0 0.00 0.00 0.00 76 1016.1
20260831041859 85 155 6.0 9.0 0.00 0.00 0.00 76 1016.2
20260831041358 85 142 8.0 13.0 0.00 0.00 0.00 76 1016.0
20260831040854 85 142 7.0 13.0 0.00 0.00 0.00 75 1016.0
20260831040348 85 149 10.0 13.0 0.00 0.00 0.00 75 1015.9
20260831035846 86 142 9.0 15.0 0.00 0.00 0.00 74 1015.7
20260831035345 86 131 6.0 13.0 0.00 0.00 0.00 73 1015.6
20260831034839 86 156 7.0 16.0 0.00 0.00 0.00 72 1015.5
20260831034335 86 174 5.0 12.0 0.00 0.00 0.00 71 1015.2
20260831033830 86 148 7.0 17.0 0.00 0.00 0.00 70 1015.1
20260831033330 86 157 4.0 11.0 0.00 0.00 0.00 70 1015.3
20260831032826 86 154 7.0 15.0 0.00 0.00 0.00 70 1015.2
20260831032320 86 158 8.0 12.0 0.00 0.00 0.00 69 1015.3
20260831031816 86 136 11.0 12.0 0.00 0.00 0.00 69 1015.2
20260831031314 87 141 9.0 14.0 0.00 0.00 0.00 68 1015.0
20260831030809 87 148 12.0 16.0 0.00 0.00 0.00 68 1015.0
20260831030307 87 121 10.0 13.0 0.00 0.00 0.00 68 1015.0
20260831025802 87 142 10.0 16.0 0.00 0.00 0.00 67 1014.8
20260831025256 87 134 5.0 10.0 0.00 0.00 0.00 67 1014.7
20260831024752 87 130 8.0 13.0 0.00 0.00 0.00 67 1014.7
20260831024251 87 140 12.0 16.0 0.00 0.00 0.00 66 1014.7
20260831023750 88 146 7.0 15.0 0.00 0.00 0.00 65 1014.4
20260831023249 88 149 9.0 12.0 0.00 0.00 0.00 64 1014.4
20260831022744 88 146 11.0 15.0 0.00 0.00 0.00 64 1014.2
20260831022243 88 143 9.0 17.0 0.00 0.00 0.00 63 1014.4
20260831021739 88 132 9.0 17.0 0.00 0.00 0.00 62 1014.3
20260831021238 89 127 11.0 16.0 0.00 0.00 0.00 62 1014.0
20260831020735 89 161 8.0 16.0 0.00 0.00 0.00 62 1014.0
20260831020233 89 130 13.0 20.0 0.00 0.00 0.00 61 1014.0
20260831015729 89 156 9.0 18.0 0.00 0.00 0.00 61 1013.9
20260831015225 90 145 8.0 15.0 0.00 0.00 0.00 60 1014.0
20260831014720 90 148 6.0 15.0 0.00 0.00 0.00 60 1013.8
20260831014215 90 147 7.0 10.0 0.00 0.00 0.00 59 1013.9
20260831013711 90 144 8.0 13.0 0.00 0.00 0.00 59 1013.8
20260831013210 90 140 10.0 19.0 0.00 0.00 0.00 59 1013.8
20260831012705 91 136 13.0 22.0 0.00 0.00 0.00 58 1013.7
20260831012201 91 136 11.0 19.0 0.00 0.00 0.00 58 1013.7
20260831011659 91 148 8.0 14.0 0.00 0.00 0.00 58 1013.8
20260831011150 91 137 11.0 17.0 0.00 0.00 0.00 58 1013.5
20260831010645 91 135 13.0 18.0 0.00 0.00 0.00 57 1013.6
20260831010140 92 133 18.0 23.0 0.00 0.00 0.00 56 1013.5
20260831005634 92 113 12.0 17.0 0.00 0.00 0.00 56 1013.4
20260831005130 93 157 10.0 16.0 0.00 0.00 0.00 55 1013.4
20260831004625 93 155 11.0 18.0 0.00 0.00 0.00 54 1013.1
20260831004121 93 141 11.0 18.0 0.00 0.00 0.00 54 1013.1
20260831003617 93 126 12.0 15.0 0.00 0.00 0.00 53 1012.9
20260831003113 94 138 11.0 16.0 0.00 0.00 0.00 53 1012.8
20260831002611 94 143 9.0 18.0 0.00 0.00 0.00 52 1012.7
20260831002107 94 148 12.0 16.0 0.00 0.00 0.00 52 1012.8
20260831001602 94 146 10.0 16.0 0.00 0.00 0.00 51 1012.7
20260831001058 95 154 11.0 18.0 0.00 0.00 0.00 50 1012.5
20260831000554 95 155 11.0 13.0 0.00 0.00 0.00 49 1012.5
20260831000054 95 174 6.0 17.0 0.00 0.00 0.00 49 1012.4
20260830235553 96 144 11.0 18.0 0.00 0.00 0.00 48 1012.7
20260830235048 96 160 7.0 12.0 0.00 0.00 0.00 48 1012.5
20260830234543 96 156 14.0 17.0 0.00 0.00 0.00 47 1012.2
20260830234038 97 144 12.0 20.0 0.00 0.00 0.00 46 1012.3
20260830233533 97 178 7.0 14.0 0.00 0.00 0.00 46 1012.3
20260830233029 97 152 7.0 15.0 0.00 0.00 0.00 45 1012.3
20260830232525 97 168 9.0 19.0 0.00 0.00 0.00 46 1012.3
20260830232021 97 152 6.0 16.0 0.00 0.00 0.00 45 1012.3
20260830231517 98 155 9.0 24.0 0.00 0.00 0.00 44 1012.3
20260830231016 99 181 6.0 14.0 0.00 0.00 0.00 43 1012.3
20260830230511 99 190 10.0 16.0 0.00 0.00 0.00 42 1012.3
20260830230011 100 159 5.0 15.0 0.00 0.00 0.00 41 1012.1
20260830225507 100 151 9.0 11.0 0.00 0.00 0.00 41 1012.2
20260830225006 100 173 5.0 10.0 0.00 0.00 0.00 40 1012.3
20260830224504 100 131 15.0 15.0 0.00 0.00 0.00 43 1012.1
20260830224001 99 142 8.0 13.0 0.00 0.00 0.00 46 1012.0
20260830223458 99 143 11.0 19.0 0.00 0.00 0.00 45 1012.1
20260830222957 100 140 7.0 12.0 0.00 0.00 0.00 44 1012.0
20260830222452 100 135 15.0 17.0 0.00 0.00 0.00 45 1012.0
20260830221942 100 135 13.0 15.0 0.00 0.00 0.00 42 1012.2
20260830221438 100 139 9.0 15.0 0.00 0.00 0.00 44 1012.0
20260830220934 100 182 6.0 10.0 0.00 0.00 0.00 39 1012.0
20260830220433 99 136 10.0 15.0 0.00 0.00 0.00 41 1012.1
20260830215930 99 141 7.0 15.0 0.00 0.00 0.00 41 1011.9
20260830215425 99 129 8.0 11.0 0.00 0.00 0.00 40 1012.2
20260830214915 99 152 6.0 10.0 0.00 0.00 0.00 41 1012.1
20260830214410 99 141 5.0 10.0 0.00 0.00 0.00 40 1012.0
20260830213904 100 139 11.0 18.0 0.00 0.00 0.00 38 1012.2
20260830213400 101 157 11.0 15.0 0.00 0.00 0.00 38 1012.2
20260830212856 101 134 9.0 12.0 0.00 0.00 0.00 37 1012.3
20260830212351 101 133 13.0 13.0 0.00 0.00 0.00 38 1012.3
20260830211850 101 141 9.0 18.0 0.00 0.00 0.00 37 1012.6
20260830211345 101 132 4.0 7.0 0.00 0.00 0.00 37 1012.4
20260830210841 101 127 5.0 13.0 0.00 0.00 0.00 37 1012.6
20260830210339 101 131 5.0 11.0 0.00 0.00 0.00 38 1012.6
20260830205838 100 149 6.0 10.0 0.00 0.00 0.00 39 1012.7
20260830205337 100 150 5.0 13.0 0.00 0.00 0.00 39 1012.7
20260830204832 100 190 9.0 10.0 0.00 0.00 0.00 40 1013.2
20260830204331 101 144 5.0 8.0 0.00 0.00 0.00 39 1012.8
20260830203827 99 121 4.0 12.0 0.00 0.00 0.00 40 1013.0
20260830203323 100 140 6.0 10.0 0.00 0.00 0.00 40 1013.3
20260830202822 100 140 11.0 15.0 0.00 0.00 0.00 40 1013.5
20260830202318 100 131 8.0 13.0 0.00 0.00 0.00 39 1013.3
20260830201813 101 138 9.0 11.0 0.00 0.00 0.00 39 1013.4
20260830201307 101 170 6.0 12.0 0.00 0.00 0.00 39 1013.6
20260830200802 101 178 6.0 13.0 0.00 0.00 0.00 38 1013.5
20260830200256 100 169 6.0 8.0 0.00 0.00 0.00 39 1013.9
20260830195752 101 151 10.0 17.0 0.00 0.00 0.00 39 1014.0
20260830195251 100 134 6.0 11.0 0.00 0.00 0.00 39 1014.1
20260830194748 100 142 6.0 13.0 0.00 0.00 0.00 39 1014.1
20260830194243 100 235 7.0 9.0 0.00 0.00 0.00 38 1014.1
20260830193737 101 195 3.0 5.0 0.00 0.00 0.00 38 1014.3
20260830193232 100 245 2.0 5.0 0.00 0.00 0.00 38 1014.5
20260830192728 100 180 5.0 11.0 0.00 0.00 0.00 37 1014.6
20260830192222 101 156 7.0 13.0 0.00 0.00 0.00 36 1014.4
20260830191718 100 190 8.0 12.0 0.00 0.00 0.00 40 1014.7
20260830191217 99 248 4.0 5.0 0.00 0.00 0.00 41 1014.8
20260830190713 99 160 6.0 11.0 0.00 0.00 0.00 40 1014.9
20260830190208 98 154 3.0 12.0 0.00 0.00 0.00 41 1015.0
20260830185707 99 146 9.0 11.0 0.00 0.00 0.00 41 1014.9
20260830185203 99 176 4.0 8.0 0.00 0.00 0.00 41 1015.3
20260830184702 99 227 4.0 6.0 0.00 0.00 0.00 41 1015.2
20260830184201 98 166 7.0 12.0 0.00 0.00 0.00 41 1015.2
20260830183701 100 143 6.0 10.0 0.00 0.00 0.00 42 1015.2
20260830183157 99 167 4.0 9.0 0.00 0.00 0.00 43 1015.4
20260830182652 99 132 7.0 9.0 0.00 0.00 0.00 43 1015.4
20260830182148 99 194 6.0 10.0 0.00 0.00 0.00 44 1015.5
20260830181644 98 196 6.0 8.0 0.00 0.00 0.00 45 1015.9
20260830181139 97 150 9.0 11.0 0.00 0.00 0.00 45 1015.8
20260830180638 97 170 5.0 13.0 0.00 0.00 0.00 46 1015.7
20260830180133 97 149 9.0 13.0 0.00 0.00 0.00 46 1015.8
20260830175632 97 203 4.0 11.0 0.00 0.00 0.00 46 1016.2
20260830175127 97 186 6.0 12.0 0.00 0.00 0.00 47 1016.1
20260830174622 96 175 7.0 13.0 0.00 0.00 0.00 48 1016.1
20260830174118 96 192 6.0 12.0 0.00 0.00 0.00 48 1016.2
20260830173612 96 179 5.0 5.0 0.00 0.00 0.00 48 1016.3
20260830173108 96 135 10.0 13.0 0.00 0.00 0.00 48 1016.4
20260830172605 96 160 5.0 9.0 0.00 0.00 0.00 49 1016.6
20260830172101 95 182 6.0 12.0 0.00 0.00 0.00 48 1016.7
20260830171556 95 152 6.0 13.0 0.00 0.00 0.00 50 1016.6
20260830171050 96 150 11.0 13.0 0.00 0.00 0.00 47 1016.7
20260830170549 95 166 4.0 9.0 0.00 0.00 0.00 50 1016.7
20260830170044 95 156 7.0 11.0 0.00 0.00 0.00 52 1017.0
20260830165539 95 174 5.0 11.0 0.00 0.00 0.00 52 1016.9
20260830165035 94 223 7.0 9.0 0.00 0.00 0.00 53 1016.8
20260830164531 93 189 4.0 16.0 0.00 0.00 0.00 54 1017.1
20260830164027 93 154 10.0 12.0 0.00 0.00 0.00 54 1017.0
20260830163523 92 183 6.0 14.0 0.00 0.00 0.00 55 1016.9
20260830163022 93 159 10.0 18.0 0.00 0.00 0.00 56 1016.9
20260830162518 93 176 9.0 11.0 0.00 0.00 0.00 55 1017.0
20260830162013 93 200 6.0 10.0 0.00 0.00 0.00 57 1017.1
20260830161507 92 160 4.0 15.0 0.00 0.00 0.00 56 1017.2
20260830161001 92 193 2.0 11.0 0.00 0.00 0.00 57 1017.1
20260830160458 91 154 6.0 12.0 0.00 0.00 0.00 59 1017.2
20260830155953 91 199 4.0 11.0 0.00 0.00 0.00 60 1017.3
20260830155450 91 174 5.0 12.0 0.00 0.00 0.00 61 1017.1
20260830154944 91 147 6.0 12.0 0.00 0.00 0.00 63 1017.2
20260830154439 90 206 4.0 9.0 0.00 0.00 0.00 64 1017.1
20260830153930 90 153 12.0 14.0 0.00 0.00 0.00 64 1017.1
20260830153426 89 162 6.0 11.0 0.00 0.00 0.00 65 1017.3
20260830152925 90 191 6.0 8.0 0.00 0.00 0.00 64 1017.2
20260830152420 89 184 10.0 10.0 0.00 0.00 0.00 65 1017.2
20260830151913 89 176 5.0 13.0 0.00 0.00 0.00 66 1017.1
20260830151408 88 131 7.0 12.0 0.00 0.00 0.00 68 1017.1
20260830150903 88 169 5.0 11.0 0.00 0.00 0.00 70 1017.0
20260830150402 88 166 8.0 13.0 0.00 0.00 0.00 69 1017.0
20260830145856 88 152 5.0 10.0 0.00 0.00 0.00 69 1017.1
20260830145351 88 162 7.0 12.0 0.00 0.00 0.00 69 1016.8
20260830144841 87 184 2.0 13.0 0.00 0.00 0.00 71 1016.8
20260830144337 87 155 6.0 10.0 0.00 0.00 0.00 71 1016.9
20260830143832 87 156 4.0 9.0 0.00 0.00 0.00 72 1016.9
20260830143332 87 161 6.0 8.0 0.00 0.00 0.00 73 1017.1
20260830142826 86 144 6.0 11.0 0.00 0.00 0.00 74 1016.8
20260830142321 86 163 3.0 9.0 0.00 0.00 0.00 74 1016.7
20260830141816 86 188 4.0 7.0 0.00 0.00 0.00 76 1016.8
20260830141311 85 163 5.0 7.0 0.00 0.00 0.00 77 1016.6
20260830140806 85 173 5.0 8.0 0.00 0.00 0.00 77 1016.8
20260830140301 85 170 3.0 8.0 0.00 0.00 0.00 78 1016.8
20260830135755 85 169 5.0 9.0 0.00 0.00 0.00 79 1016.8
20260830135251 84 153 5.0 7.0 0.00 0.00 0.00 80 1016.6
20260830134747 84 178 6.0 9.0 0.00 0.00 0.00 80 1016.7
20260830134241 84 158 5.0 7.0 0.00 0.00 0.00 81 1016.5
20260830133737 83 173 5.0 9.0 0.00 0.00 0.00 82 1016.6
20260830133233 83 167 4.0 9.0 0.00 0.00 0.00 82 1016.4
20260830132728 83 159 3.0 7.0 0.00 0.00 0.00 83 1016.6